Flag for U.S.A. Weather past 2 weeks in Clarksville, Tennessee, U.S.A.

Now
76 °F

Clear.


Feels Like: 78 °F
Forecast: 58 / 83 °F
Wind: No wind

Location: Outlaw Field

Current Time: Sep 30, 2014 at 8:01:02 PM

Latest Report: Sep 30, 2014 at 6:52 PM


Visibility: 10 mi

Pressure: 29.88 "Hg

Humidity: 45%

Dew point: 53 °F

Location of ClarksvilleLocation

Historic Weather in Clarksville — Graph

°F

Clarksville temperature yesterday

Maximum temperature yesterday: 86 °F (at 2:52 PM)
Minimum temperature yesterday: 57 °F (at 3:52 AM)
Average temperature yesterday: 70 °F

Past Weeks' High & Low Weather Summary

 TemperatureHumidityPressure
High87 °F (Sep 30, 2:52 PM)100% (Sep 17, 8:52 AM)30.31 "Hg (Sep 17, 8:52 AM)
Low45 °F (Sep 23, 6:52 AM)29% (Sep 23, 2:52 PM)29.86 "Hg (Sep 30, 4:52 PM)
Average67 °F71%30.08 "Hg
* Reported Sep 15 6:52 PM — Sep 30 6:52 PM, Clarksville, Weather by CustomWeather, © 2014

Note: Actual official high and low records may vary slightly from our data, if they occured in-between our weather recording intervals... More about our weather records

Advertising

Clarksville weather history for previous 24 hours

 ConditionsComfort  
Time TempWeatherWind HumidityBarometerVisibility
6:52 PM
Sep 30
76 °FClear.No wind45%29.88 "Hg10 mi
5:52 PM80 °FSunny.5 mph42%29.87 "Hg10 mi
4:52 PM85 °FSunny.No wind32%29.86 "Hg10 mi
3:52 PM85 °FPassing clouds.No wind32%29.87 "Hg10 mi
2:52 PM87 °FPassing clouds.5 mph29%29.88 "Hg10 mi
1:52 PM85 °FSunny.No wind32%29.89 "Hg10 mi
12:52 PM86 °FSunny.6 mph31%29.92 "Hg10 mi
11:52 AM85 °FPassing clouds.N/A34%29.94 "Hg10 mi
10:52 AM81 °FSunny.No wind41%29.95 "Hg7 mi
9:52 AM75 °FSunny.No wind55%29.95 "Hg7 mi
8:52 AM67 °FSunny.No wind79%29.96 "Hg6 mi
7:52 AM58 °FFog.No wind97%29.95 "Hg2 mi
6:52 AM54 °FFog.No wind100%29.95 "Hg0 mi
6:04 AM53 °FFog.No wind96%29.95 "Hg1 mi
5:52 AM55 °FFog.No wind96%29.94 "Hg6 mi
4:52 AM56 °FFog.No wind93%29.93 "Hg4 mi
3:52 AM57 °FFog.3 mph93%29.92 "Hg5 mi
2:52 AM59 °FFog.No wind93%29.92 "Hg6 mi
1:56 AM56 °FFog.No wind97%29.95 "Hg2 mi
12:52 AM62 °FClear.No wind86%29.93 "Hg7 mi
11:52 PM
Sep 29
62 °FClear.3 mph93%29.93 "Hg7 mi
10:52 PM63 °FClear.No wind87%29.94 "Hg10 mi
9:52 PM67 °FClear.No wind76%29.94 "Hg10 mi
8:52 PM69 °FClear.No wind68%29.93 "Hg10 mi
Weather by CustomWeather, © 2014

See weather overviewHow to use our weather pages